Regional Weather Roundup
Issued by NWS

Current Version | Previous Version | Text Only | Print | Product List | Glossary Off
Versions: 1 2 3 4 5 6 7 8 9 10 11 12 13 14 15 16 17 18 19 20 21 22 23 24 25 26 27 28 29 30 31 32 33 34 35 36 37 38 39 40 41 42 43 44 45 46 47 48 49 50

000
ASUS42 KFFC 232210
RWRGA
WEATHER ROUNDUP FOR GEORGIA
NATIONAL WEATHER SERVICE PEACHTREE CITY GA
600 PM EDT THU MAR 23 2017

NOTE: "FAIR" INDICATES FEW OR NO CLOUDS BELOW 12,000 FEET WITH NO
SIGNIFICANT WEATHER AND/OR OBSTRUCTIONS TO VISIBILITY.

* = USE WITH CAUTION. THE STATIONS MARKED WITH AN ASTERISK MAY NOT
REPORT WEATHER SUCH AS PRECIPITATION, FOG, OR THUNDER AND ARE NOT
QUALITY CONTROLLED BY NWS.

THE REMARK "TC" DENOTES TEMPERATURE READING IN DEGREES CELSIUS.

GAZ001>058-232300-
NORTH GEORGIA

CITY           SKY/WX    TMP DP  RH WIND       PRES   REMARKS
ATLANTA        PTSUNNY   64  37  36 E14       30.37F
ATHENS         CLOUDY    62  36  37 SE3       30.41S
CHAMBLEE       CLOUDY    63  37  38 E12G17    30.37F
PEACHTREE CITY PTSUNNY   66  42  41 SE14G23   30.36F
ROME           MOSUNNY   67  38  34 SE13      30.31F
WEST ATLANTA   PTSUNNY   64  37  36 E12       30.35F
GAINESVILLE    PTSUNNY   58  32  37 E8        30.41S
CARTERSVILLE   CLOUDY    65  40  39 SE9       30.35F


CITY           SKY/WX    TMP DP  RH WIND       PRES   REMARKS
DALTON*        CLOUDY    63  36  36 SE14      30.33F
LAWRENCEVILLE* MOSUNNY   63  36  36 SE12      30.40S
MARIETTA       PTSUNNY   63  38  39 SE16      30.35F
KENNESAW*      MOSUNNY   63  37  39 SE12G21   30.36F
CANTON*        CLOUDY    61  21  21 E14       30.38F
$$

GAZ059>098-102>109-232300-
CENTRAL GEORGIA

CITY           SKY/WX    TMP DP  RH WIND       PRES   REMARKS
AUGUSTA-BUSH   SUNNY     68  34  28 E7        30.42R
AUGUSTA-DANIEL SUNNY     66  30  26 E9        30.43S
COLUMBUS       CLOUDY    66  46  48 SE12      30.33S
MACON          PTSUNNY   66  47  50 E14       30.38F
ROBINS AFB     PTSUNNY   67  46  48 SE12      30.37S


CITY           SKY/WX    TMP DP  RH WIND       PRES   REMARKS
LAGRANGE*      CLOUDY    67  51  56 SE9       30.34S
SYLVANIA*      SUNNY    N/A N/A N/A E9        30.42S
MILLEDGEVILLE* CLOUDY    64  43  45 E5        30.40S
$$

GAZ099>101-110>166-232300-
SOUTH GEORGIA

CITY           SKY/WX    TMP DP  RH WIND       PRES   REMARKS
SAVANNAH       MOSUNNY   64  38  38 E15       30.44S
VALDOSTA       PTSUNNY   69  53  56 E14G21    30.33F
ALMA           MOSUNNY   66  50  56 E13G20    30.38S
ST SIMONS      CLOUDY    62  52  69 NE18G25   30.41R
FT STEWART     SUNNY     65  42  41 E12       30.40F
ALBANY         CLOUDY    69  54  58 SE14      30.35S
HUNTER AFB     SUNNY     62  51  65 E8        30.41F
MOODY AFB      CLOUDY    68  52  55 E12       30.32F
BRUNSWICK      PTSUNNY   63  55  77 NE20      30.42S


CITY           SKY/WX    TMP DP  RH WIND       PRES   REMARKS
BAINBRIDGE*    PTSUNNY   72  57  60 E13       30.31R
MOULTRIE*      CLOUDY    70  54  56 E12G20    30.33S
VIDALIA*       CLOUDY    68  48  49 E10       30.40R
WAYCROSS*      PTSUNNY   70  55  59 SE13G20   30.38S
DOUGLAS*       PTSUNNY   68  48  49 E10G17    30.38S
$$




USA.gov is the U.S. government's official web portal to all federal, state and local government web resources and services.